Powrót do katalogu

FENGYUN 1C DEB

AktywnySSO
NORAD 30169·DEBRIS·🇨🇳 China

Wystrzelony May 10, 1999 z Taiyuan Satellite Launch Center

Loading…

Następne Przeloty (najbliższe 24 godziny)

TLE

ŚwieżeSource: Space-Track

Epoka: Sep 14, 2026, 11:38 UTC

1 30169U 99025UA  26257.48500038  .00008960  00000-0  12809-2 0  9999
2 30169  98.3133 334.0041 0195079  87.6650 287.4608 14.64639072 17461

Śledź FENGYUN 1C DEB w czasie rzeczywistym z AllMySat

Download on the App Store